[[{"header":{"parameterUnit":"m.s-1","parameterCategory":1,"la1":30.2991,"la2":30.254,"lo1":-89.0895,"lo2":-89.0444,"dy":0.0017,"dx":0.0017,"nx":28,"ny":28,"refTime":"2023-07-22T03:00:00:Z","depth":0,"parameterNumber":2,"parameterNumberName":"U-component_of_WINDS"},"data":[0,0,0,0,0,0,0,0,0,0,0,0,0,0,0,0,0,0,0,0,0,0,0,0,0,0,0,0,0,0,0,0,0,0,0,0,0,0,0,0,0,0,0,0,0,0,0,0,0,0,0,0,0,0,0,0,0,0,-2.4133,-2.4136,0,-2.4396,-2.4399,-2.4401,-2.4642,-2.4645,-2.4648,-2.4651,-2.4908,-2.4912,-2.4916,0,0,0,0,0,0,0,0,0,0,0,0,0,-2.3832,-2.3836,-2.4133,-2.4136,-2.414,-2.4395,-2.4399,-2.4402,-2.4641,-2.4645,-2.4649,-2.4652,-2.4907,-2.4912,-2.4917,0,0,0,0,0,0,0,0,0,0,0,0,0,-2.4014,-2.3837,-2.4133,-2.429,-2.4307,-2.4394,-2.4399,-2.4403,-2.4641,-2.4645,-2.465,-2.4654,-2.4905,-2.4911,-2.4917,-2.4867,0,0,-2.4936,-2.4939,0,0,0,0,0,0,0,0,-2.4004,-2.4025,-2.4264,-2.428,-2.4299,-2.4491,-2.4387,-2.4558,-2.464,-2.4514,-2.4651,-2.4656,-2.4765,-2.4783,-2.4822,-2.4879,-2.489,-2.4937,-2.4941,-2.4943,-2.4945,0,0,0,0,0,0,0,-2.3991,-2.4015,-2.4237,-2.4267,-2.4288,-2.4345,-2.4376,-2.4421,-2.4611,-2.4525,-2.4543,-2.4571,-2.4775,-2.4816,-2.483,-2.4894,-2.4937,-2.4942,-2.4946,-2.4948,-2.4922,-2.4918,0,0,0,0,0,0,-2.3955,-2.4003,-2.4229,-2.4245,-2.4159,-2.4347,-2.4382,-2.4424,-2.4611,-2.4644,-2.4567,-2.4582,-2.4803,-2.4823,-2.484,-2.4792,-2.4943,-2.4949,-2.4952,-2.4926,-2.4921,-2.4916,0,0,0,0,0,0,-2.3948,-2.3973,-2.4218,-2.4129,-2.4165,-2.4348,-2.4394,-2.4427,-2.4468,-2.4644,-2.4678,-2.4574,-2.4807,-2.4831,-2.4859,-2.4804,-2.4952,-2.4957,-2.4932,-2.4925,-2.4919,-2.4694,0,0,0,0,0,0,-2.3938,-2.3969,-2.3953,-2.4127,-2.4169,-2.4234,-2.4391,-2.4429,-2.4479,-2.45,-2.4659,-2.4689,-2.4813,-2.4849,-2.4865,-2.4815,-2.4962,-2.4937,-2.4929,-2.4921,-2.4707,-2.4681,-2.4658,0,0,0,0,0,-2.3927,-2.3877,-2.3951,-2.3977,-2.4153,-2.423,-2.4254,-2.44,-2.4474,-2.4458,-2.4571,-2.4684,-2.4809,-2.4849,-2.487,-2.4821,-2.4941,-2.4931,-2.4922,-2.4718,-2.4686,-2.4659,0,0,0,0,0,0,-2.3687,-2.3903,-2.3987,-2.3993,-2.4092,-2.4271,-2.4255,-2.4361,-2.4438,-2.4454,-2.463,-2.4663,-2.467,-2.475,-2.4791,-2.4782,-2.489,-2.4884,-2.4729,-2.47,-2.4676,-2.4654,-2.4967,0,0,0,0,0,-2.3636,-2.3684,-2.3869,-2.3856,-2.3902,-2.4069,-2.4109,-2.4214,-2.4322,-2.4363,-2.4479,-2.4576,-2.4639,-2.4675,-2.4741,-2.4723,-2.4759,-2.4699,-2.4675,-2.4654,-2.4644,-2.4639,-2.4613,-2.4884,-2.4884,-2.4884,0,0,-2.3528,-2.3653,-2.3671,-2.3811,-2.39,-2.3943,-2.4103,-2.4141,-2.4173,-2.4368,-2.4402,-2.449,-2.4611,-2.4615,-2.4622,-2.4681,-2.4579,-2.4641,-2.4623,-2.4625,-2.4626,-2.46,-2.4577,-2.4877,-2.4878,-2.488,0,0,-2.3354,-2.3454,-2.3454,-2.3542,-2.3676,-2.3789,-2.3789,-2.3953,-2.402,-2.4058,-2.4205,-2.4245,-2.4348,-2.4428,-2.4482,-2.4342,-2.4447,-2.4359,-2.4228,-2.4221,-2.4199,-2.4181,-2.4128,-2.4107,-2.435,-2.435,-2.4349,0,-2.3202,-2.3275,-2.344,-2.347,-2.3526,-2.3711,-2.371,-2.3786,-2.3933,-2.3966,-2.4032,-2.4165,-2.426,-2.4284,-2.425,-2.429,-2.4292,-2.4338,-2.419,-2.4173,-2.4159,-2.411,-2.4089,-2.4338,-2.4339,-2.434,-2.4342,0,-2.308,-2.3129,-2.3113,-2.3254,-2.331,-2.3323,-2.3488,-2.3524,-2.3625,-2.3729,-2.3765,-2.3886,-2.398,-2.3995,-2.4093,-2.4033,-2.4065,-2.4158,-2.4269,-2.4118,-2.4075,-2.4057,-2.4321,-2.4325,-2.4329,-2.4332,0,0,-2.2756,-2.2993,-2.2983,-2.305,-2.3214,-2.3253,-2.3276,-2.3372,-2.3397,-2.3494,-2.3515,-2.36,-2.3688,-2.3749,-2.3858,-2.3852,-2.373,-2.3947,-2.3952,-2.3898,-2.3669,-2.3594,-2.357,-2.3805,-2.3802,-2.38,-2.3658,0,-2.2605,-2.2659,-2.2809,-2.2816,-2.2861,-2.3039,-2.3059,-2.316,-2.3259,-2.3311,-2.3421,-2.3477,-2.359,-2.3628,-2.3631,-2.3744,-2.3686,-2.3758,-2.3821,-2.3821,-2.3779,-2.3548,-2.3469,-2.3329,-2.3642,-2.3639,-2.3637,0,-2.2435,-2.2523,-2.2535,-2.2699,-2.2723,-2.2738,-2.2838,-2.2887,-2.3005,-2.3078,-2.3148,-2.3271,-2.3302,-2.341,-2.3454,-2.35,-2.3536,-2.3596,-2.3594,-2.36,-2.3715,-2.3543,-2.3288,-2.3264,-2.3613,-2.3615,-2.3617,0,-2.2191,-2.2315,-2.2338,-2.239,-2.2582,-2.2588,-2.2667,-2.2791,-2.2839,-2.2927,-2.2959,-2.3048,-2.3095,-2.316,-2.3302,-2.3369,-2.3329,-2.345,-2.3387,-2.3382,-2.3365,-2.3363,-2.3106,-2.3397,-2.3397,-2.3397,-2.3398,0,-2.2004,-2.2002,-2.2231,-2.2244,-2.2248,-2.2422,-2.242,-2.2516,-2.2625,-2.2658,-2.2819,-2.2845,-2.3035,-2.3084,-2.3196,-2.3214,-2.3235,-2.3292,-2.332,-2.3274,-2.3266,-2.3295,-2.3306,-2.3392,-2.3393,-2.3394,-2.3395,0,-2.173,-2.1884,-2.192,-2.2101,-2.2146,-2.214,-2.2294,-2.2312,-2.2425,-2.2464,-2.2484,-2.2657,-2.2723,-2.2874,-2.2979,-2.3055,-2.3042,-2.3098,-2.3001,-2.3018,-2.2946,-2.2948,-2.2694,-2.2668,-2.2978,-2.2975,-2.2973,0,-2.1597,-2.1601,-2.1784,-2.1819,-2.1894,-2.1948,-2.2,-2.2172,-2.2218,-2.2355,-2.2355,-2.2435,-2.2507,-2.2603,-2.2736,-2.2818,-2.2874,-2.278,-2.2886,-2.284,-2.2867,-2.2862,-2.2862,-2.2753,-2.2749,-2.2745,-2.2742,0,-2.1343,-2.1421,-2.149,-2.1586,-2.1644,-2.1727,-2.1819,-2.1838,-2.2031,-2.2075,-2.2146,-2.2202,-2.2312,-2.2387,-2.2489,-2.257,-2.2685,-2.2709,-2.2698,-2.2647,-2.259,-2.2616,-2.2931,-2.2712,-2.2715,-2.2718,-2.2719,-2.272,-2.1134,-2.1145,-2.1276,-2.1348,-2.1436,-2.1519,-2.1545,-2.1662,-2.1725,-2.1829,-2.1928,-2.1988,-2.2108,-2.2258,-2.2331,-2.2379,-2.2438,-2.2423,-2.2418,-2.241,-2.2388,-2.2587,-2.2399,-2.24,-2.2401,-2.2402,-2.2403,0,-2.0885,-2.0979,-2.1044,-2.1169,-2.1225,-2.1338,-2.1445,-2.1483,-2.1536,-2.164,-2.1709,-2.1789,-2.1864,-2.2006,-2.2092,-2.2103,-2.2159,-2.212,-2.2117,-2.2133,-2.2332,-2.2331,-2.2073,-2.2073,-2.2073,-2.2073,-2.2073,-2.2074,-2.0761,-2.0786,-2.0879,-2.0948,-2.1043,-2.1106,-2.1157,-2.1234,-2.1318,-2.1401,-2.1466,-2.156,-2.1678,-2.1775,-2.1848,-2.1888,-2.191,-2.1852,-2.1907,-2.2089,-2.212,-2.2149,-2.2149,-2.1857,-2.1856,-2.1705,-2.1703,-2.1702]},{"header":{"parameterUnit":"m.s-1","parameterCategory":1,"la1":30.2991,"la2":30.254,"lo1":-89.0895,"lo2":-89.0444,"dy":0.0017,"dx":0.0017,"nx":28,"ny":28,"refTime":"2023-07-22T03:00:00:Z","depth":0,"parameterNumber":3,"parameterNumberName":"V-component_of_WINDS"},"data":[0,0,0,0,0,0,0,0,0,0,0,0,0,0,0,0,0,0,0,0,0,0,0,0,0,0,0,0,0,0,0,0,0,0,0,0,0,0,0,0,0,0,0,0,0,0,0,0,0,0,0,0,0,0,0,0,0,0,1.5895,1.5896,0,1.5993,1.5994,1.5995,1.6078,1.6079,1.608,1.6081,1.6177,1.6179,1.6181,0,0,0,0,0,0,0,0,0,0,0,0,0,1.5771,1.5773,1.5895,1.5896,1.5897,1.5993,1.5994,1.5995,1.6078,1.6079,1.608,1.6081,1.6177,1.6179,1.6181,0,0,0,0,0,0,0,0,0,0,0,0,0,1.5842,1.5774,1.5895,1.595,1.5956,1.5992,1.5994,1.5996,1.6078,1.6079,1.6081,1.6082,1.6176,1.6179,1.6181,1.6169,0,0,1.6189,1.619,0,0,0,0,0,0,0,0,1.5838,1.5847,1.5941,1.5946,1.5953,1.6025,1.5986,1.6054,1.6077,1.6031,1.6081,1.6082,1.6125,1.6132,1.6147,1.6174,1.6178,1.6189,1.6191,1.6192,1.6193,0,0,0,0,0,0,0,1.5833,1.5843,1.5934,1.5942,1.595,1.5967,1.5979,1.5999,1.6069,1.6036,1.6042,1.6052,1.6129,1.6145,1.615,1.6179,1.6189,1.6191,1.6193,1.6194,1.6193,1.6191,0,0,0,0,0,0,1.5821,1.5839,1.5931,1.5937,1.5898,1.5968,1.5982,1.6,1.6069,1.6081,1.6051,1.6056,1.614,1.6147,1.6154,1.614,1.6192,1.6194,1.6196,1.6194,1.6192,1.6191,0,0,0,0,0,0,1.5818,1.5828,1.5927,1.5889,1.5903,1.5969,1.5989,1.6001,1.6018,1.6081,1.6093,1.6055,1.6141,1.615,1.6163,1.6145,1.6195,1.6198,1.6196,1.6194,1.6191,1.6115,0,0,0,0,0,0,1.5814,1.5827,1.5826,1.5889,1.5905,1.5937,1.5989,1.6002,1.6022,1.6029,1.6088,1.6099,1.6143,1.6159,1.6166,1.6149,1.62,1.6198,1.6195,1.6192,1.612,1.611,1.6103,0,0,0,0,0,1.5809,1.5801,1.5825,1.5836,1.5905,1.5936,1.5945,1.5997,1.602,1.6018,1.6057,1.6097,1.6145,1.616,1.6168,1.6152,1.6199,1.6196,1.6192,1.6123,1.6112,1.6103,0,0,0,0,0,0,1.5735,1.5811,1.5838,1.5851,1.5886,1.595,1.5949,1.5984,1.6013,1.6019,1.608,1.6092,1.6097,1.6126,1.6141,1.614,1.6177,1.6175,1.6122,1.6112,1.6103,1.6096,1.6202,0,0,0,0,0,1.572,1.5741,1.5805,1.5809,1.5825,1.5883,1.5899,1.5935,1.5974,1.5989,1.603,1.6065,1.6087,1.6101,1.6126,1.6123,1.6134,1.6115,1.6107,1.6099,1.6097,1.6092,1.6083,1.6179,1.6179,1.6179,0,0,1.569,1.5733,1.5743,1.5795,1.5827,1.5844,1.5896,1.5914,1.5925,1.5992,1.6006,1.6036,1.6078,1.6082,1.6085,1.6106,1.6072,1.6095,1.6089,1.6091,1.6087,1.6078,1.607,1.6177,1.6177,1.6177,0,0,1.5643,1.5679,1.5685,1.5714,1.576,1.5798,1.5798,1.5855,1.5878,1.5893,1.5941,1.5954,1.5993,1.6019,1.6037,1.599,1.6026,1.5996,1.5952,1.5946,1.5939,1.5932,1.5912,1.5904,1.5994,1.5993,1.5993,0,1.5599,1.5629,1.5683,1.5695,1.5714,1.5773,1.5776,1.5801,1.5853,1.5863,1.5885,1.593,1.5963,1.5971,1.5958,1.5972,1.5972,1.5991,1.5936,1.593,1.5925,1.5906,1.5898,1.5989,1.599,1.599,1.5991,0,1.5571,1.5589,1.5587,1.5634,1.5653,1.5661,1.5712,1.5723,1.5755,1.5788,1.5799,1.5839,1.587,1.5874,1.5907,1.5884,1.5894,1.5925,1.5964,1.591,1.5893,1.5887,1.5983,1.5985,1.5986,1.5987,0,0,1.5486,1.5557,1.5555,1.5574,1.5626,1.564,1.5647,1.5677,1.5683,1.5714,1.5719,1.5746,1.5773,1.5793,1.5828,1.5823,1.5777,1.5853,1.5855,1.5835,1.5749,1.5725,1.5716,1.58,1.5799,1.5798,1.5744,0,1.5446,1.5465,1.5509,1.5513,1.5527,1.5579,1.5584,1.5613,1.5643,1.5657,1.5689,1.5706,1.5741,1.5753,1.575,1.5783,1.576,1.5788,1.5802,1.5802,1.579,1.5708,1.5684,1.5632,1.5738,1.5737,1.5736,0,1.5405,1.543,1.5435,1.5479,1.5486,1.5491,1.5518,1.5532,1.5563,1.5584,1.5603,1.564,1.5645,1.5679,1.5685,1.5702,1.5709,1.5725,1.5724,1.5728,1.5766,1.5707,1.5617,1.5608,1.5727,1.5728,1.5729,0,1.5339,1.5374,1.538,1.5395,1.5447,1.5448,1.5469,1.5503,1.5515,1.5537,1.5545,1.5567,1.5579,1.5593,1.5633,1.5655,1.5631,1.5671,1.5646,1.5644,1.564,1.564,1.5548,1.5646,1.5646,1.5646,1.5646,0,1.529,1.529,1.535,1.5354,1.5352,1.54,1.5397,1.5423,1.545,1.5456,1.5501,1.5506,1.5558,1.5567,1.5597,1.5594,1.5599,1.5614,1.5622,1.5609,1.5607,1.5616,1.562,1.5644,1.5645,1.5645,1.5645,0,1.5218,1.5259,1.5268,1.5314,1.5325,1.5322,1.536,1.5363,1.5391,1.5398,1.5402,1.5447,1.5459,1.5499,1.5521,1.5541,1.5527,1.5544,1.5517,1.5522,1.5493,1.5495,1.5404,1.5392,1.5498,1.5497,1.5496,0,1.5185,1.5185,1.523,1.5237,1.5256,1.5267,1.5279,1.5323,1.5333,1.5364,1.5361,1.5376,1.5391,1.5406,1.5439,1.5454,1.547,1.5436,1.5473,1.5458,1.5466,1.5465,1.5463,1.5429,1.5428,1.5427,1.5426,0,1.512,1.5137,1.5153,1.5173,1.5185,1.5203,1.5224,1.5226,1.5275,1.5282,1.5294,1.5305,1.5324,1.5337,1.5356,1.5375,1.5406,1.5413,1.5408,1.5395,1.5378,1.5384,1.5494,1.5416,1.5417,1.5418,1.5418,1.5419,1.5065,1.5065,1.5094,1.5108,1.5127,1.5143,1.5145,1.5172,1.5183,1.5203,1.5227,1.5234,1.5258,1.5287,1.5302,1.5306,1.5324,1.5317,1.5315,1.5312,1.5305,1.5377,1.5309,1.531,1.531,1.531,1.5311,0,1.5,1.5019,1.5031,1.5056,1.5065,1.5093,1.5114,1.5119,1.5125,1.5145,1.5157,1.5166,1.5176,1.5207,1.5219,1.5215,1.5229,1.5217,1.5217,1.522,1.5289,1.5292,1.5204,1.5204,1.5204,1.5205,1.5205,1.5205,1.4967,1.4967,1.4987,1.4994,1.5013,1.502,1.5029,1.5042,1.5058,1.5066,1.5074,1.5094,1.5116,1.5129,1.5137,1.5145,1.5146,1.5128,1.5141,1.5206,1.5216,1.5225,1.5228,1.5128,1.5128,1.5071,1.507,1.507]}]]